• Join FlightAware (Why Join?)
  • Login
  • US Flag 
08:18AM EDT


 

Airport Tracker/Info


-or-


 

Live Flight TrackerFlight Track Log ✈ N450S ✈ 17-Apr-2013 ✈ KMMU - KBKL

Flight Track Log - Related Links

Times and Time Zones

All times are in EDT time to prevent confusion due to time zone crossing. See the N450S flight status page for this flight to view local times or setup timezone preferences in your user account.

Time Position Orientation Groundspeed Altitude Reporting Facility
EDT Latitude Longitude Course Direction KTS MPH feet Rate Location/Type
04:54PM 40.8333 -74.3667 66° East 155 178 1,800  Level New York TRACON
04:55PM 40.8500 -74.3167 66° East 185 213 3,300 1,560 Climbing New York TRACON
04:56PM 40.8167 -74.2667 131° Southeast 166 191 5,000 1,500 Climbing New York TRACON
04:57PM 40.7667 -74.2833 194° South 182 209 6,300 1,500 Climbing New York TRACON
04:58PM 40.7500 -74.3167 237° Southwest 161 185 8,100 1,380 Climbing New York TRACON
04:59PM 40.7500 -74.3833 270° West 167 192 9,100 540 Climbing New York TRACON
05:00PM 40.7500 -74.4500 270° West 216 249 9,200 420 Climbing New York TRACON
05:01PM 40.7500 -74.5333 270° West 202 232 10,000 360 Climbing New York TRACON
05:02PM 40.7667 -74.6167 285° West 226 260 10,000 -120 Level New York TRACON
05:03PM 40.7642 -74.6589 266° West 232 267 9,900 900 Descending New York Center
05:04PM 40.7719 -74.7389 277° West 227 261 11,500 1,560 Climbing New York Center
05:05PM 40.7783 -74.7994 278° West 199 229 13,100 1,680 Climbing New York Center
05:06PM 40.7806 -74.8544 273° West 158 182 14,900 1,380 Climbing New York Center
05:07PM 40.7850 -74.9094 276° West 163 188 15,900 540 Climbing New York Center
05:08PM 40.7922 -74.9950 276° West 197 227 16,000 240 Climbing New York Center
05:09PM 40.7997 -75.0775 277° West 227 261 16,400 780 Climbing New York Center
05:10PM 40.7989 -75.1569 269° West 233 268 17,600 780 Climbing New York Center
05:11PM 40.7881 -75.2247 258° West 218 251 18,000 360 Climbing New York Center
05:12PM 40.7761 -75.3200 261° West 227 261 18,400 660 Climbing New York Center
05:13PM 40.7669 -75.3961 261° West 233 268 19,400 780 Climbing New York Center
05:14PM 40.7575 -75.4750 261° West 233 268 20,000 300 Climbing New York Center
05:15PM 40.7456 -75.5617 260° West 238 274 20,000  Level New York Center
05:16PM 40.7358 -75.6486 262° West 238 274 20,000  Level New York Center
05:17PM 40.7275 -75.7467 264° West 244 281 20,000  Level New York Center
05:18PM 40.7153 -75.8389 260° West 250 288 20,000  Level New York Center
05:19PM 40.7053 -75.9258 261° West 250 288 20,000  Level New York Center
05:20PM 40.6933 -76.0097 259° West 261 300 20,000  Level New York Center
05:21PM 40.6831 -76.0992 261° West 261 300 20,000  Level New York Center
05:22PM 40.6706 -76.1914 260° West 256 295 20,000  Level New York Center
05:23PM 40.6706 -76.2817 270° West 256 295 20,000  Level New York Center
05:24PM 40.6828 -76.3756 280° West 250 288 20,000  Level New York Center
05:25PM 40.6975 -76.4592 283° West 250 288 20,000  Level New York Center
05:26PM 40.7119 -76.5478 282° West 256 295 20,000  Level New York Center
05:27PM 40.7242 -76.6392 280° West 256 295 20,000  Level New York Center
05:28PM 40.7386 -76.7281 282° West 256 295 20,000  Level New York Center
05:29PM 40.7525 -76.8225 281° West 256 295 20,000  Level New York Center
05:30PM 40.7614 -76.8947 279° West 256 295 20,000  Level New York Center
05:31PM 40.7786 -77.0031 282° West 256 295 20,000  Level New York Center
05:32PM 40.7906 -77.0919 280° West 256 295 20,000  Level New York Center
05:33PM 40.8025 -77.1808 280° West 256 295 20,000  Level New York Center
05:34PM 40.8164 -77.2697 282° West 256 295 20,000  Level New York Center
05:35PM 40.8281 -77.3586 280° West 256 295 20,000  Level New York Center
05:36PM 40.8417 -77.4506 281° West 256 295 20,000  Level New York Center
05:37PM 40.8533 -77.5394 280° West 256 295 20,000  Level New York Center
05:39PM 40.8775 -77.7161 280° West 250 288 20,000  Level Cleveland Center
05:40PM 40.8881 -77.8036 279° West 250 288 20,000  Level Cleveland Center
05:41PM 40.9006 -77.8936 280° West 250 288 20,000  Level Cleveland Center
05:42PM 40.9131 -77.9839 280° West 257 296 20,000  Level Cleveland Center
05:43PM 40.9275 -78.0711 282° West 257 296 20,000  Level Cleveland Center
05:44PM 40.9419 -78.1586 282° West 252 290 20,000  Level Cleveland Center
05:45PM 40.9608 -78.2569 284° West 252 290 20,000  Level Cleveland Center
05:46PM 40.9750 -78.3444 282° West 257 296 20,000  Level Cleveland Center
05:47PM 40.9892 -78.4347 282° West 257 296 20,000  Level Cleveland Center
05:48PM 41.0033 -78.5222 282° West 257 296 20,000  Level Cleveland Center
05:49PM 41.0175 -78.6100 282° West 257 296 20,000  Level Cleveland Center
05:50PM 41.0336 -78.6975 284° West 257 296 20,000  Level Cleveland Center
05:51PM 41.0475 -78.7881 282° West 257 296 20,000  Level Cleveland Center
05:52PM 41.0614 -78.8758 282° West 257 296 20,000  Level Cleveland Center
05:53PM 41.0731 -78.9636 280° West 257 296 20,000  Level Cleveland Center
05:54PM 41.0889 -79.0542 283° West 257 296 20,000  Level Cleveland Center
05:55PM 41.1025 -79.1447 281° West 257 296 20,000  Level Cleveland Center
05:56PM 41.1142 -79.2328 280° West 257 296 20,000  Level Cleveland Center
05:57PM 41.1297 -79.3206 283° West 257 296 20,000  Level Cleveland Center
05:58PM 41.1431 -79.4142 281° West 257 296 20,000  Level Cleveland Center
05:59PM 41.1564 -79.5022 281° West 252 290 20,000  Level Cleveland Center
06:00PM 41.1697 -79.5900 281° West 252 290 20,000  Level Cleveland Center
06:01PM 41.1831 -79.6700 283° West 252 290 20,000  Level Cleveland Center
06:02PM 41.1961 -79.7692 280° West 252 290 20,000 -300 Level Cleveland Center
06:03PM 41.2114 -79.8600 283° West 257 296 19,400 -600 Descending Cleveland Center
06:04PM 41.2244 -79.9536 281° West 257 296 18,800 -780 Descending Cleveland Center
06:05PM 41.2375 -80.0447 281° West 257 296 17,900 -900 Descending Cleveland Center
06:06PM 41.2525 -80.1383 282° West 262 302 17,100 -900 Descending Cleveland Center
06:07PM 41.2758 -80.2322 288° West 262 302 16,100 -1,080 Descending Cleveland Center
06:09PM 41.3242 -80.4200 289° West 276 318 14,000 -1,140 Descending Cleveland Center
06:10PM 41.3492 -80.5139 290° West 271 312 12,700 -1,680 Descending Cleveland Center
06:11PM 41.3742 -80.6081 290° West 271 312 10,700 -1,980 Descending Cleveland Center
06:12PM 41.3992 -80.7078 289° West 276 318 8,800 -1,740 Descending Cleveland Center
06:13PM 41.4242 -80.8019 290° West 276 318 7,300 -1,440 Descending Cleveland Center
06:14PM 41.4447 -80.8933 287° West 257 296 6,100 -780 Descending Cleveland Center
06:14PM 41.4611 -80.9572 289° West 232 267 6,000 -120 Descending Cleveland Center
06:15PM 41.4672 -80.9794 290° West 252 290 6,000  Level Cleveland Center
06:15PM 41.4817 -81.0322 290° West 214 246 6,000  Level Cleveland Center
06:16PM 41.4878 -81.0600 286° West 228 262 6,000 -240 Level Cleveland Center
06:16PM 41.5003 -81.1044 291° West 220 253 5,800 -540 Descending Cleveland Center
06:17PM 41.5064 -81.1350 285° West 223 257 5,500 -900 Descending Cleveland Center
06:17PM 41.5144 -81.1878 282° West 234 269 4,900 -900 Descending Cleveland Center
06:18PM 41.5100 -81.2181 259° West 223 257 4,600 -1,020 Descending Cleveland Center
06:18PM 41.4992 -81.2761 256° West 247 284 3,900 -1,140 Descending Cleveland Center
06:19PM 41.4992 -81.3122 270° West 239 275 3,500 -900 Descending Cleveland Center
06:19PM 41.5258 -81.3681 303° West 262 302 3,000 -540 Descending Cleveland Center
06:20PM 41.5361 -81.3931 299° West 244 281 3,000  Level Cleveland Center
06:20PM 41.5586 -81.4322 308° West 244 281 3,000  Level Cleveland Center
06:21PM 41.5750 -81.4658 303° West 244 281 3,000  Level Cleveland Center
06:21PM 41.5956 -81.5106 302° West 234 269 3,000  Level Cleveland Center
06:22PM 41.6036 -81.5383 291° West 234 269 3,000  Level Cleveland Center
06:22PM 41.6117 -81.5831 284° West 192 221 3,000  Level Cleveland Center
06:23PM 41.6156 -81.6108 281° West 207 238 3,000 -300 Level Cleveland Center
06:23PM 41.5967 -81.6411 230° Southwest 175 201 2,700 -720 Descending Cleveland Center
06:24PM 41.5608 -81.6819 220° Southwest 183 211 1,900 -720 Descending Cleveland Center
06:25PM 41.5206 -81.7286 221° Southwest 170 196 1,300 -600 Descending Cleveland Center
06:27PM 41.5175 -81.6833 349° North  Level Estimated
06:34PM 41.5175 -81.6833 349° North  Level Estimated